Time,TemperatureF,DewpointF,PressureIn,WindDirection,WindDirectionDegrees,WindSpeedMPH,WindSpeedGustMPH,Humidity,HourlyPrecipIn,Conditions,Clouds,dailyrainin,SoftwareType,DateUTC
2013-03-28 00:00:00,35.0,-99.9,-100.00,SSW,213,10.0,16.0,-999,-99.99,,,-99.99,,2013-03-28 06:00:00,
2013-03-28 00:33:00,35.0,-99.9,-100.00,SSW,213,10.0,16.0,-999,-99.99,,,-99.99,,2013-03-28 06:33:00,
2013-03-28 00:43:00,35.0,-99.9,-100.00,SSW,213,10.0,16.0,-999,-99.99,,,-99.99,,2013-03-28 06:43:00,
2013-03-28 00:52:00,35.0,-99.9,-100.00,SSW,213,10.0,16.0,-999,-99.99,,,-99.99,,2013-03-28 06:52:00,
2013-03-28 01:00:00,35.0,-99.9,-100.00,SW,223,9.0,16.0,-999,-99.99,,,-99.99,,2013-03-28 07:00:00,
2013-03-28 01:32:00,35.0,-99.9,-100.00,SW,223,9.0,16.0,-999,-99.99,,,-99.99,,2013-03-28 07:32:00,
2013-03-28 01:42:00,35.0,-99.9,-100.00,SW,223,9.0,16.0,-999,-99.99,,,-99.99,,2013-03-28 07:42:00,
2013-03-28 01:52:00,35.0,-99.9,-100.00,SW,223,9.0,16.0,-999,-99.99,,,-99.99,,2013-03-28 07:52:00,
2013-03-28 02:00:00,36.0,-99.9,-100.00,SW,236,5.0,12.0,-999,-99.99,,,-99.99,,2013-03-28 08:00:00,
2013-03-28 02:33:00,36.0,-99.9,-100.00,SW,236,5.0,12.0,-999,-99.99,,,-99.99,,2013-03-28 08:33:00,
2013-03-28 02:42:00,36.0,-99.9,-100.00,SW,236,5.0,12.0,-999,-99.99,,,-99.99,,2013-03-28 08:42:00,
2013-03-28 02:52:00,36.0,-99.9,-100.00,SW,236,5.0,12.0,-999,-99.99,,,-99.99,,2013-03-28 08:52:00,
2013-03-28 03:00:00,35.0,-99.9,-100.00,SSW,213,5.0,12.0,-999,-99.99,,,-99.99,,2013-03-28 09:00:00,
2013-03-28 03:33:00,35.0,-99.9,-100.00,SSW,213,5.0,12.0,-999,-99.99,,,-99.99,,2013-03-28 09:33:00,
2013-03-28 03:42:00,35.0,-99.9,-100.00,SSW,213,5.0,12.0,-999,-99.99,,,-99.99,,2013-03-28 09:42:00,
2013-03-28 03:53:00,35.0,-99.9,-100.00,SSW,213,5.0,12.0,-999,-99.99,,,-99.99,,2013-03-28 09:53:00,
2013-03-28 05:00:00,34.0,-99.9,-100.00,SW,218,4.0,13.0,-999,-99.99,,,-99.99,,2013-03-28 11:00:00,
2013-03-28 05:32:00,34.0,-99.9,-100.00,SW,218,4.0,13.0,-999,-99.99,,,-99.99,,2013-03-28 11:32:00,
2013-03-28 05:43:00,34.0,-99.9,-100.00,SW,218,4.0,13.0,-999,-99.99,,,-99.99,,2013-03-28 11:43:00,
2013-03-28 05:52:00,34.0,-99.9,-100.00,SW,218,4.0,13.0,-999,-99.99,,,-99.99,,2013-03-28 11:52:00,
2013-03-28 06:00:00,33.0,-99.9,-100.00,SSW,202,9.0,17.0,-999,-99.99,,,-99.99,,2013-03-28 12:00:00,
2013-03-28 06:33:00,33.0,-99.9,-100.00,SSW,202,9.0,17.0,-999,-99.99,,,-99.99,,2013-03-28 12:33:00,
2013-03-28 06:42:00,33.0,-99.9,-100.00,SSW,202,9.0,17.0,-999,-99.99,,,-99.99,,2013-03-28 12:42:00,
2013-03-28 06:52:00,33.0,-99.9,-100.00,SSW,202,9.0,17.0,-999,-99.99,,,-99.99,,2013-03-28 12:52:00,
2013-03-28 07:00:00,33.0,-99.9,-100.00,SW,220,14.0,19.0,-999,-99.99,,,-99.99,,2013-03-28 13:00:00,
2013-03-28 07:32:00,33.0,-99.9,-100.00,SW,220,14.0,19.0,-999,-99.99,,,-99.99,,2013-03-28 13:32:00,
2013-03-28 07:42:00,33.0,-99.9,-100.00,SW,220,14.0,19.0,-999,-99.99,,,-99.99,,2013-03-28 13:42:00,
2013-03-28 07:52:00,33.0,-99.9,-100.00,SW,220,14.0,19.0,-999,-99.99,,,-99.99,,2013-03-28 13:52:00,
2013-03-28 09:00:00,34.0,-99.9,-100.00,SW,225,9.0,16.0,-999,-99.99,,,-99.99,,2013-03-28 15:00:00,
2013-03-28 09:33:00,34.0,-99.9,-100.00,SW,225,9.0,16.0,-999,-99.99,,,-99.99,,2013-03-28 15:33:00,
2013-03-28 09:43:00,34.0,-99.9,-100.00,SW,225,9.0,16.0,-999,-99.99,,,-99.99,,2013-03-28 15:43:00,
2013-03-28 09:53:00,34.0,-99.9,-100.00,SW,225,9.0,16.0,-999,-99.99,,,-99.99,,2013-03-28 15:53:00,
2013-03-28 10:00:00,36.0,-99.9,-100.00,SSW,205,5.0,13.0,-999,-99.99,,,-99.99,,2013-03-28 16:00:00,
2013-03-28 10:33:00,36.0,-99.9,-100.00,SSW,205,5.0,13.0,-999,-99.99,,,-99.99,,2013-03-28 16:33:00,
2013-03-28 10:42:00,36.0,-99.9,-100.00,SSW,205,5.0,13.0,-999,-99.99,,,-99.99,,2013-03-28 16:42:00,
2013-03-28 10:52:00,36.0,-99.9,-100.00,SSW,205,5.0,13.0,-999,-99.99,,,-99.99,,2013-03-28 16:52:00,
2013-03-28 11:00:00,39.0,-99.9,-100.00,South,184,5.0,15.0,-999,-99.99,,,-99.99,,2013-03-28 17:00:00,
2013-03-28 11:32:00,39.0,-99.9,-100.00,South,184,5.0,15.0,-999,-99.99,,,-99.99,,2013-03-28 17:32:00,
2013-03-28 11:42:00,39.0,-99.9,-100.00,South,184,5.0,15.0,-999,-99.99,,,-99.99,,2013-03-28 17:42:00,
2013-03-28 11:53:00,39.0,-99.9,-100.00,South,184,5.0,15.0,-999,-99.99,,,-99.99,,2013-03-28 17:53:00,
2013-03-28 12:00:00,39.0,-99.9,-100.00,South,179,7.0,15.0,-999,-99.99,,,-99.99,,2013-03-28 18:00:00,
2013-03-28 12:32:00,39.0,-99.9,-100.00,South,179,7.0,15.0,-999,-99.99,,,-99.99,,2013-03-28 18:32:00,
2013-03-28 12:42:00,39.0,-99.9,-100.00,South,179,7.0,15.0,-999,-99.99,,,-99.99,,2013-03-28 18:42:00,
2013-03-28 12:53:00,39.0,-99.9,-100.00,South,179,7.0,15.0,-999,-99.99,,,-99.99,,2013-03-28 18:53:00,
2013-03-28 13:00:00,40.0,-99.9,-100.00,South,172,5.0,12.0,-999,-99.99,,,-99.99,,2013-03-28 19:00:00,
2013-03-28 13:33:00,40.0,-99.9,-100.00,South,172,5.0,12.0,-999,-99.99,,,-99.99,,2013-03-28 19:33:00,
2013-03-28 13:43:00,40.0,-99.9,-100.00,South,172,5.0,12.0,-999,-99.99,,,-99.99,,2013-03-28 19:43:00,
2013-03-28 13:53:00,40.0,-99.9,-100.00,South,172,5.0,12.0,-999,-99.99,,,-99.99,,2013-03-28 19:53:00,
2013-03-28 14:00:00,39.0,-99.9,-100.00,SSW,198,6.0,13.0,-999,-99.99,,,-99.99,,2013-03-28 20:00:00,
2013-03-28 14:33:00,39.0,-99.9,-100.00,SSW,198,6.0,13.0,-999,-99.99,,,-99.99,,2013-03-28 20:33:00,
2013-03-28 14:43:00,39.0,-99.9,-100.00,SSW,198,6.0,13.0,-999,-99.99,,,-99.99,,2013-03-28 20:43:00,
2013-03-28 14:53:00,39.0,-99.9,-100.00,SSW,198,6.0,13.0,-999,-99.99,,,-99.99,,2013-03-28 20:53:00,
2013-03-28 15:00:00,41.0,-99.9,-100.00,SW,236,4.0,16.0,-999,-99.99,,,-99.99,,2013-03-28 21:00:00,
2013-03-28 15:33:00,41.0,-99.9,-100.00,SW,236,4.0,16.0,-999,-99.99,,,-99.99,,2013-03-28 21:33:00,
2013-03-28 15:43:00,41.0,-99.9,-100.00,SW,236,4.0,16.0,-999,-99.99,,,-99.99,,2013-03-28 21:43:00,
2013-03-28 15:53:00,41.0,-99.9,-100.00,SW,236,4.0,16.0,-999,-99.99,,,-99.99,,2013-03-28 21:53:00,
2013-03-28 16:00:00,39.0,-99.9,-100.00,SW,216,5.0,19.0,-999,-99.99,,,-99.99,,2013-03-28 22:00:00,
2013-03-28 16:33:00,39.0,-99.9,-100.00,SW,216,5.0,19.0,-999,-99.99,,,-99.99,,2013-03-28 22:33:00,
2013-03-28 16:43:00,39.0,-99.9,-100.00,SW,216,5.0,19.0,-999,-99.99,,,-99.99,,2013-03-28 22:43:00,
2013-03-28 16:53:00,39.0,-99.9,-100.00,SW,216,5.0,19.0,-999,-99.99,,,-99.99,,2013-03-28 22:53:00,
2013-03-28 17:00:00,41.0,-99.9,-100.00,SW,234,4.0,13.0,-999,-99.99,,,-99.99,,2013-03-28 23:00:00,
2013-03-28 17:32:00,41.0,-99.9,-100.00,SW,234,4.0,13.0,-999,-99.99,,,-99.99,,2013-03-28 23:32:00,
2013-03-28 17:42:00,41.0,-99.9,-100.00,SW,234,4.0,13.0,-999,-99.99,,,-99.99,,2013-03-28 23:42:00,
2013-03-28 17:53:00,41.0,-99.9,-100.00,SW,234,4.0,13.0,-999,-99.99,,,-99.99,,2013-03-28 23:53:00,
2013-03-28 18:00:00,40.0,-99.9,-100.00,West,274,3.0,13.0,-999,-99.99,,,-99.99,,2013-03-29 00:00:00,
2013-03-28 18:33:00,40.0,-99.9,-100.00,West,274,3.0,13.0,-999,-99.99,,,-99.99,,2013-03-29 00:33:00,
2013-03-28 18:43:00,40.0,-99.9,-100.00,West,274,3.0,13.0,-999,-99.99,,,-99.99,,2013-03-29 00:43:00,
2013-03-28 18:52:00,40.0,-99.9,-100.00,West,274,3.0,13.0,-999,-99.99,,,-99.99,,2013-03-29 00:52:00,
2013-03-28 19:00:00,37.0,-99.9,-100.00,SW,222,5.0,14.0,-999,-99.99,,,-99.99,,2013-03-29 01:00:00,
2013-03-28 19:33:00,37.0,-99.9,-100.00,SW,222,5.0,14.0,-999,-99.99,,,-99.99,,2013-03-29 01:33:00,
2013-03-28 19:42:00,37.0,-99.9,-100.00,SW,222,5.0,14.0,-999,-99.99,,,-99.99,,2013-03-29 01:42:00,
2013-03-28 19:53:00,37.0,-99.9,-100.00,SW,222,5.0,14.0,-999,-99.99,,,-99.99,,2013-03-29 01:53:00,
2013-03-28 20:00:00,35.0,-99.9,-100.00,SW,222,5.0,15.0,-999,-99.99,,,-99.99,,2013-03-29 02:00:00,
2013-03-28 20:33:00,35.0,-99.9,-100.00,SW,222,5.0,15.0,-999,-99.99,,,-99.99,,2013-03-29 02:33:00,
2013-03-28 20:42:00,35.0,-99.9,-100.00,SW,222,5.0,15.0,-999,-99.99,,,-99.99,,2013-03-29 02:42:00,
2013-03-28 20:53:00,35.0,-99.9,-100.00,SW,222,5.0,15.0,-999,-99.99,,,-99.99,,2013-03-29 02:53:00,
2013-03-28 21:00:00,34.0,-99.9,-100.00,SW,231,6.0,15.0,-999,-99.99,,,-99.99,,2013-03-29 03:00:00,
2013-03-28 21:33:00,34.0,-99.9,-100.00,SW,231,6.0,15.0,-999,-99.99,,,-99.99,,2013-03-29 03:33:00,
2013-03-28 21:43:00,34.0,-99.9,-100.00,SW,231,6.0,15.0,-999,-99.99,,,-99.99,,2013-03-29 03:43:00,
2013-03-28 21:53:00,34.0,-99.9,-100.00,SW,231,6.0,15.0,-999,-99.99,,,-99.99,,2013-03-29 03:53:00,
2013-03-28 22:00:00,35.0,-99.9,-100.00,SW,217,7.0,13.0,-999,-99.99,,,-99.99,,2013-03-29 04:00:00,
2013-03-28 22:33:00,35.0,-99.9,-100.00,SW,217,7.0,13.0,-999,-99.99,,,-99.99,,2013-03-29 04:33:00,
2013-03-28 22:43:00,35.0,-99.9,-100.00,SW,217,7.0,13.0,-999,-99.99,,,-99.99,,2013-03-29 04:43:00,
2013-03-28 22:53:00,35.0,-99.9,-100.00,SW,217,7.0,13.0,-999,-99.99,,,-99.99,,2013-03-29 04:53:00,
2013-03-28 23:00:00,35.0,-99.9,-100.00,NW,321,3.0,9.0,-999,-99.99,,,-99.99,,2013-03-29 05:00:00,
2013-03-28 23:33:00,35.0,-99.9,-100.00,NW,321,3.0,9.0,-999,-99.99,,,-99.99,,2013-03-29 05:33:00,
2013-03-28 23:44:00,35.0,-99.9,-100.00,NW,321,3.0,9.0,-999,-99.99,,,-99.99,,2013-03-29 05:44:00,
2013-03-28 23:53:00,35.0,-99.9,-100.00,NW,321,3.0,9.0,-999,-99.99,,,-99.99,,2013-03-29 05:53:00,